Tracking 23731 objects as of 26-Sep-2021
HD Live streaming from Space Station
objects crossing your sky now

STARLINK-2689

Track STARLINK-2689 now!
10-day predictions
STARLINK-2689 is classified as:


NORAD ID: 48463
Int'l Code: 2021-040AM
Perigee: 553.8 km
Apogee: 554.9 km
Inclination: 53.1 °
Period: 95.6 minutes
Semi major axis: 6925 km
RCS: Unknown
Launch date: May 9, 2021
Source: United States (US)
Launch site: AIR FORCE EASTERN TEST RANGE (AFETR)
aabbcc
Your satellite tracking list
Your tracking list is empty




NASA's NSSDC Master Catalog

Two Line Element Set (TLE):
1 48463U 21040AM  21268.76016391 -.00000161  00000-0  80375-5 0  9991
2 48463  53.0559 290.6934 0000759  80.8529 279.2546 15.06399939 21439
Source of the keplerian elements: AFSPC